Curtiss, WI (54422)

9:34 AM CST on February 13, 2016 (GMT -0600)
Taylor County | | Change Station
CLOSE
Current Station
Airport
Location: Medford,
Elevation: 1470 ft
Nearby Weather Stations

Elev 1470 ft 45.10 °N, 90.30 °W | Updated 19 minutes ago

Mostly Cloudy
Mostly Cloudy
-7 °F
Feels Like -18 °F
N
5
Wind Variable Wind from North

Today
High -- | Low -- °F
--% Chance of Precip.
Yesterday
High -- | Low -- °F
Precip. -- in
Pressure 30.50 in
Visibility 10.0 miles
Clouds Clear
Windchill -18 °F
Dew Point -15 °F
Humidity 68%
Rainfall 0.00 in
Snow Depth Not available.
7:06 AM 5:26 PM
Waxing Crescent, 31% visible
METAR KMDZ 131515Z AUTO 35004KT 10SM CLR M22/M26 A3050 RMK AO2 T12181263
Pressure 30.50 in
Visibility 10.0 miles
Clouds Clear
Windchill -18 °F
Dew Point -15 °F
Humidity 68%
Rainfall 0.00 in
Snow Depth Not available.
7:06 AM 5:26 PM
Waxing Crescent, 31% visible
METAR KMDZ 131515Z AUTO 35004KT 10SM CLR M22/M26 A3050 RMK AO2 T12181263

10-Day Weather Forecast

Almanac

Astronomy

Feb. 13, 2016 Rise Set
Actual Time
Civil Twilight
Nautical Twilight
Astronomical Twilight
Moon
Length of Visible Light
Length of Day
Tomorrow will be .
, % of the Moon is Illuminated

Today's Extremes

State Highs State Lows

Community

WunderPhotos

Upload Photos

1,892,585 photos uploaded!

WunderBlog® & News

Nearby

Air Quality

  Air Quality AQ Index Pollutant
Not available.

Snow Depth

Station Depth Elevation

Earthquake Activity

City Distance Mag. Time & Date
Minimum magnitude displayed is 2.5.

Coastal Water Temperatures

Place Temperature

Stations

Nearby Weather Stations

Station Location Temp. Windchill Dew Point Humidity Wind Precip. Elev Updated Type
                   

Watches & Warnings

There are currently no watches in effect.